When you browse on this site, cookies collect data to enhance your experience and personalize the content and advertising you see.
Visit our Privacy Policy to learn more. By continuing to use the site, you agree to this use of cookies and data.

Hourly Weather Lyubyatino

Today, 10 July, Friday

Time Temperature Precipitation Wind Pressure Humidity
00:00 +9°C° 0 mm 2 mps 746 mmHg 95%
01:00 +9°C° 0 mm 2 mps 747 mmHg 95%
02:00 +8°C° 0 mm 2 mps 747 mmHg 95%
03:00 +9°C° 0 mm 2 mps 747 mmHg 95%
04:00 +9°C° 0 mm 2 mps 748 mmHg 94%
05:00 +10°C° 0 mm 2 mps 748 mmHg 94%
06:00 +13°C° 0 mm 2 mps 748 mmHg 84%
07:00 +15°C° 0 mm 2 mps 748 mmHg 75%
08:00 +17°C° 0 mm 2 mps 748 mmHg 65%
09:00 +18°C° 0 mm 2 mps 748 mmHg 59%
10:00 +19°C° 0 mm 3 mps 749 mmHg 53%
11:00 +21°C° 0 mm 3 mps 749 mmHg 47%
12:00 +21°C° 0 mm 3 mps 748 mmHg 47%
13:00 +21°C° 0 mm 3 mps 748 mmHg 46%
14:00 +22°C° 0 mm 3 mps 748 mmHg 46%
15:00 +21°C° 0 mm 3 mps 748 mmHg 50%
16:00 +21°C° 0 mm 3 mps 748 mmHg 53%
17:00 +21°C° 0 mm 3 mps 748 mmHg 56%
18:00 +19°C° 0.1 mm 3 mps 748 mmHg 63%
19:00 +18°C° 0.1 mm 3 mps 748 mmHg 70%
20:00 +16°C° 0.1 mm 3 mps 748 mmHg 77%
21:00 +16°C° 0.1 mm 3 mps 747 mmHg 80%
22:00 +16°C° 0.1 mm 3 mps 747 mmHg 83%
23:00 +14°C° 0.1 mm 3 mps 747 mmHg 86%

Tomorrow, 11 July, Saturday

Time Temperature Precipitation Wind Pressure Humidity
00:00 +14°C° 0.1 mm 4 mps 747 mmHg 86%
01:00 +15°C° 0.1 mm 4 mps 746 mmHg 86%
02:00 +15°C° 0.1 mm 4 mps 746 mmHg 87%
03:00 +15°C° 0.1 mm 4 mps 746 mmHg 88%
04:00 +16°C° 0.1 mm 5 mps 746 mmHg 90%
05:00 +16°C° 0.1 mm 5 mps 745 mmHg 91%
06:00 +16°C° 0.1 mm 5 mps 745 mmHg 91%
07:00 +16°C° 0.1 mm 5 mps 745 mmHg 91%
08:00 +17°C° 0.1 mm 5 mps 745 mmHg 91%
09:00 +17°C° 0.1 mm 5 mps 745 mmHg 91%
10:00 +19°C° 0.1 mm 5 mps 745 mmHg 90%
11:00 +19°C° 0.1 mm 5 mps 745 mmHg 90%
12:00 +21°C° 0 mm 5 mps 744 mmHg 83%
13:00 +23°C° 0 mm 5 mps 744 mmHg 77%
14:00 +26°C° 0 mm 5 mps 744 mmHg 70%
15:00 +25°C° 0.7 mm 5 mps 744 mmHg 77%
16:00 +25°C° 0.7 mm 5 mps 744 mmHg 83%
17:00 +23°C° 0.7 mm 4 mps 744 mmHg 89%
18:00 +22°C° 0 mm 4 mps 744 mmHg 84%
19:00 +21°C° 0 mm 4 mps 745 mmHg 79%
20:00 +19°C° 0 mm 4 mps 745 mmHg 74%
21:00 +18°C° 0 mm 3 mps 746 mmHg 73%
22:00 +17°C° 0 mm 3 mps 746 mmHg 72%
23:00 +14°C° 0 mm 3 mps 746 mmHg 71%

Day after tomorrow, 12 July, Sunday

Time Temperature Precipitation Wind Pressure Humidity
00:00 +14°C° 0 mm 2 mps 747 mmHg 75%
01:00 +13°C° 0 mm 2 mps 747 mmHg 78%
02:00 +13°C° 0 mm 2 mps 748 mmHg 82%
03:00 +13°C° 0 mm 2 mps 748 mmHg 82%
04:00 +13°C° 0 mm 2 mps 748 mmHg 82%
05:00 +14°C° 0 mm 2 mps 748 mmHg 82%
06:00 +15°C° 0 mm 2 mps 748 mmHg 77%
07:00 +16°C° 0 mm 2 mps 748 mmHg 73%
08:00 +17°C° 0 mm 2 mps 749 mmHg 69%
09:00 +16°C° 0 mm 2 mps 749 mmHg 74%
10:00 +15°C° 0 mm 2 mps 749 mmHg 78%
11:00 +15°C° 0 mm 2 mps 749 mmHg 83%
12:00 +15°C° 0 mm 2 mps 749 mmHg 84%
13:00 +14°C° 0 mm 2 mps 749 mmHg 84%
14:00 +14°C° 0 mm 2 mps 749 mmHg 85%
15:00 +14°C° 0 mm 1 mps 749 mmHg 86%
16:00 +14°C° 0 mm 1 mps 748 mmHg 87%
17:00 +14°C° 0 mm 1 mps 748 mmHg 89%
18:00 +13°C° 0 mm 1 mps 748 mmHg 89%
19:00 +13°C° 0 mm 1 mps 748 mmHg 89%
20:00 +13°C° 0 mm 1 mps 748 mmHg 89%
21:00 +13°C° 0 mm 1 mps 748 mmHg 89%
22:00 +12°C° 0 mm 1 mps 748 mmHg 89%
23:00 +12°C° 0 mm 1 mps 747 mmHg 89%

13 July, Monday

Time Temperature Precipitation Wind Pressure Humidity
00:00 +12°C° 0 mm 1 mps 747 mmHg 89%
01:00 +12°C° 0 mm 1 mps 747 mmHg 89%
02:00 +12°C° 0 mm 1 mps 747 mmHg 89%
03:00 +12°C° 1 mm 1 mps 746 mmHg 92%
04:00 +12°C° 1 mm 1 mps 746 mmHg 95%
05:00 +12°C° 1 mm 1 mps 746 mmHg 98%
06:00 +12°C° 0.5 mm 2 mps 745 mmHg 98%
07:00 +12°C° 0.5 mm 2 mps 745 mmHg 98%
08:00 +13°C° 0.5 mm 2 mps 745 mmHg 97%
09:00 +13°C° 0.1 mm 2 mps 745 mmHg 97%
10:00 +13°C° 0.1 mm 2 mps 745 mmHg 97%
11:00 +13°C° 0.1 mm 2 mps 745 mmHg 97%
12:00 +14°C° 0.2 mm 2 mps 744 mmHg 97%
13:00 +13°C° 0.2 mm 3 mps 744 mmHg 97%
14:00 +13°C° 0.2 mm 3 mps 743 mmHg 97%
15:00 +13°C° 0 mm 3 mps 743 mmHg 96%
16:00 +14°C° 0 mm 3 mps 743 mmHg 94%
17:00 +14°C° 0 mm 3 mps 742 mmHg 93%
18:00 +14°C° 0 mm 3 mps 742 mmHg 94%
19:00 +13°C° 0 mm 3 mps 742 mmHg 94%
20:00 +13°C° 0 mm 3 mps 742 mmHg 95%
21:00 +13°C° 0 mm 3 mps 741 mmHg 95%
22:00 +13°C° 0 mm 3 mps 741 mmHg 95%
23:00 +13°C° 0 mm 3 mps 740 mmHg 95%

14 July, Tuesday

Time Temperature Precipitation Wind Pressure Humidity
00:00 +13°C° 0 mm 4 mps 740 mmHg 94%
01:00 +12°C° 0 mm 4 mps 740 mmHg 94%
02:00 +12°C° 0 mm 4 mps 740 mmHg 94%
03:00 +12°C° 0.1 mm 4 mps 739 mmHg 94%
04:00 +12°C° 0.1 mm 4 mps 739 mmHg 94%
05:00 +12°C° 0.1 mm 4 mps 739 mmHg 94%
06:00 +13°C° 0 mm 4 mps 739 mmHg 93%
07:00 +13°C° 0 mm 4 mps 739 mmHg 91%
08:00 +13°C° 0 mm 4 mps 739 mmHg 90%
09:00 +14°C° 0 mm 4 mps 739 mmHg 86%
10:00 +15°C° 0 mm 5 mps 739 mmHg 82%
11:00 +15°C° 0 mm 5 mps 739 mmHg 78%
12:00 +16°C° 0 mm 5 mps 739 mmHg 75%
13:00 +17°C° 0 mm 5 mps 739 mmHg 72%
14:00 +17°C° 0 mm 5 mps 739 mmHg 69%
15:00 +19°C° 0 mm 4 mps 739 mmHg 67%
16:00 +19°C° 0 mm 4 mps 739 mmHg 66%
17:00 +19°C° 0 mm 4 mps 739 mmHg 64%
18:00 +18°C° 0 mm 3 mps 739 mmHg 71%
19:00 +17°C° 0 mm 3 mps 740 mmHg 79%
20:00 +15°C° 0 mm 2 mps 740 mmHg 86%
21:00 +14°C° 0 mm 3 mps 740 mmHg 86%
22:00 +13°C° 0 mm 3 mps 740 mmHg 86%
23:00 +12°C° 0 mm 3 mps 740 mmHg 86%

15 July, Wednesday

Time Temperature Precipitation Wind Pressure Humidity
00:00 +11°C° 0 mm 3 mps 740 mmHg 85%
01:00 +11°C° 0 mm 3 mps 740 mmHg 83%
02:00 +10°C° 0 mm 3 mps 740 mmHg 81%
03:00 +10°C° 0 mm 3 mps 741 mmHg 81%
04:00 +10°C° 0 mm 3 mps 741 mmHg 80%
05:00 +10°C° 0 mm 3 mps 741 mmHg 80%
06:00 +12°C° 0 mm 4 mps 741 mmHg 72%
07:00 +14°C° 0 mm 4 mps 741 mmHg 64%
08:00 +16°C° 0 mm 5 mps 741 mmHg 57%
09:00 +17°C° 0 mm 5 mps 741 mmHg 53%
10:00 +19°C° 0 mm 5 mps 741 mmHg 50%
11:00 +20°C° 0 mm 5 mps 741 mmHg 47%
12:00 +20°C° 0 mm 5 mps 741 mmHg 50%
13:00 +20°C° 0 mm 4 mps 742 mmHg 54%
14:00 +19°C° 0 mm 4 mps 742 mmHg 58%
15:00 +19°C° 0 mm 4 mps 742 mmHg 61%
16:00 +18°C° 0 mm 4 mps 743 mmHg 64%
17:00 +18°C° 0 mm 4 mps 743 mmHg 67%
18:00 +16°C° 0 mm 3 mps 744 mmHg 73%
19:00 +15°C° 0 mm 2 mps 744 mmHg 78%
20:00 +13°C° 0 mm 2 mps 745 mmHg 83%
21:00 +12°C° 0 mm 1 mps 745 mmHg 87%
22:00 +11°C° 0 mm 1 mps 745 mmHg 91%
23:00 +9°C° 0 mm 1 mps 746 mmHg 95%
Show more